Regional Weather Roundup
Issued by NWS

Home | Current Version | Previous Version | Graphics & Text | Print | Product List | Glossary On
Versions: 1 2 3 4 5 6 7 8 9 10 11 12 13 14 15 16 17 18 19 20 21 22 23 24 25 26 27 28 29 30 31 32 33 34 35 36 37 38 39 40 41 42 43 44 45 46 47 48 49 50
639
ASUS43 KLMK 261410
RWRKY
KENTUCKY REGIONAL WEATHER ROUNDUP
NATIONAL WEATHER SERVICE LOUISVILLE KY
1000 AM EDT THU MAY 26 2016

NOTE "FAIR" INDICATES FEW OR NO CLOUDS BELOW 12,000 FEET
WITH NO SIGNIFICANT WEATHER AND/OR OBSTRUCTIONS TO VISIBILITY.

KYZ001>023-026-027-061>063-070>075-261500-
WESTERN AND SOUTH CENTRAL KENTUCKY

CITY           SKY/WX    TMP DP  RH WIND       PRES   REMARKS
PADUCAH        PTSUNNY   76  67  73 SW12      30.04R
HENDERSON      SUNNY     75  64  69 SW14      30.04R
OWENSBORO      MOSUNNY   77  68  73 S14       30.06R
HOPKINSVILLE   MOSUNNY   76  69  79 SW12      30.07S
BOWLING GREEN  SUNNY     76  65  68 SW12      30.09S
GLASGOW        SUNNY     73  63  72 SW6       30.11S
$$

KYZ024-025-028>034-038-045-046-053-261500-
NORTH CENTRAL KENTUCKY

CITY           SKY/WX    TMP DP  RH WIND       PRES   REMARKS
LOUISVILLE/SDF PTSUNNY   74  63  68 S13       30.08S
LOUISVILLE/LOU LGT RAIN  72  63  73 S8        30.09S
FORT KNOX      PTSUNNY   72  63  72 S9        30.08R
$$

KYZ035>037-039>044-047>052-055>060-089>105-261500-
NORTHEAST KENTUCKY

CITY           SKY/WX    TMP DP  RH WIND       PRES   REMARKS
LEXINGTON      CLOUDY    68  63  84 S15G22    30.13F
COVINGTON      NOT AVBL
FRANKFORT      PTSUNNY   71  63  75 S10       30.11S
$$

KYZ054-064>069-076>088-106>120-261500-
SOUTHEAST KENTUCKY

CITY           SKY/WX    TMP DP  RH WIND       PRES   REMARKS
JACKSON        LGT RAIN  65  62  90 CALM      30.19S FOG
LONDON         LGT RAIN  65  63  93 SE7       30.19F FOG
SOMERSET       MOSUNNY   66  64  94 S6        30.17F
MIDDLESBORO    DRIZZLE   67  66  96 CALM      30.22F
MONTICELLO     MOSUNNY   71  65  81 E8        30.17S
$$





USA.gov is the U.S. government's official web portal to all federal, state and local government web resources and services.